Tracking 19817 objects as of 19-Aug-2019
HD Live streaming from Space Station
objects crossing your sky now

BELL


BELL is no longer on orbit
BELL is classified as:


NORAD ID: 39142
Int'l Code: 2013-016A
Perigee: N/A
Apogee: N/A
Inclination: N/A
Period: N/A
Semi major axis: N/A
RCS: N/A
Launch date: April 21, 2013
Source: United States (US)
Launch site: WALLOPS ISLAND (WLPIS)
Decay date: 2013-04-27

Uplink (MHz):
Downlink (MHz): 2401.200-2431.200
Beacon (MHz): 437.425
Mode: 1200bps AFSK
Call sign: KJ6KRW-1
Status: Reentered

aabbcc
Your satellite tracking list
Your tracking list is empty




NASA's NSSDC Master Catalog

Two Line Element Set (TLE):
1 39142U 13016A   13117.34900600  .12996567  12577-4  54149-3 0  9992
2 39142 051.6109 280.4904 0006484 322.5779 038.8670 16.43330407   886
Source of the keplerian elements: AFSPC